When you browse on this site, cookies collect data to enhance your experience and personalize the content and advertising you see.
Visit our Privacy Policy to learn more. By continuing to use the site, you agree to this use of cookies and data.

Hourly Weather Georgetown

Today, 14 July, Tuesday

Time Temperature Precipitation Wind Pressure Humidity
00:00 +33°C° 0 mm 4 mps 731 mmHg 56%
01:00 +32°C° 0 mm 5 mps 731 mmHg 57%
02:00 +32°C° 0 mm 5 mps 731 mmHg 60%
03:00 +32°C° 0 mm 6 mps 731 mmHg 64%
04:00 +30°C° 0 mm 6 mps 730 mmHg 67%
05:00 +30°C° 0 mm 6 mps 731 mmHg 68%
06:00 +30°C° 0 mm 7 mps 731 mmHg 69%
07:00 +30°C° 0 mm 7 mps 731 mmHg 70%
08:00 +32°C° 0 mm 7 mps 732 mmHg 68%
09:00 +32°C° 0 mm 8 mps 732 mmHg 66%
10:00 +32°C° 0 mm 8 mps 732 mmHg 65%
11:00 +32°C° 0 mm 7 mps 732 mmHg 64%
12:00 +33°C° 0 mm 5 mps 731 mmHg 63%
13:00 +33°C° 0 mm 4 mps 731 mmHg 62%
14:00 +33°C° 0 mm 3 mps 730 mmHg 60%
15:00 +34°C° 0 mm 2 mps 729 mmHg 58%
16:00 +33°C° 0 mm 1 mps 728 mmHg 56%
17:00 +33°C° 0 mm 1 mps 729 mmHg 58%
18:00 +32°C° 0 mm 2 mps 729 mmHg 60%
19:00 +32°C° 0 mm 2 mps 730 mmHg 63%
20:00 +30°C° 0.2 mm 6 mps 731 mmHg 69%
21:00 +29°C° 0.2 mm 10 mps 731 mmHg 75%
22:00 +28°C° 0.2 mm 14 mps 732 mmHg 81%
23:00 +28°C° 0.1 mm 13 mps 732 mmHg 80%

Tomorrow, 15 July, Wednesday

Time Temperature Precipitation Wind Pressure Humidity
00:00 +28°C° 0.1 mm 12 mps 732 mmHg 79%
01:00 +28°C° 0.1 mm 10 mps 732 mmHg 78%
02:00 +28°C° 0 mm 9 mps 732 mmHg 79%
03:00 +28°C° 0 mm 7 mps 732 mmHg 79%
04:00 +28°C° 0 mm 5 mps 732 mmHg 79%
05:00 +28°C° 0.1 mm 5 mps 733 mmHg 77%
06:00 +28°C° 0.1 mm 5 mps 733 mmHg 74%
07:00 +28°C° 0.1 mm 5 mps 733 mmHg 72%
08:00 +29°C° 0 mm 4 mps 733 mmHg 69%
09:00 +29°C° 0 mm 4 mps 734 mmHg 66%
10:00 +30°C° 0 mm 4 mps 734 mmHg 63%
11:00 +30°C° 0 mm 4 mps 734 mmHg 62%
12:00 +32°C° 0 mm 4 mps 733 mmHg 61%
13:00 +32°C° 0 mm 4 mps 733 mmHg 60%
14:00 +31°C° 0 mm 3 mps 733 mmHg 61%
15:00 +31°C° 0 mm 3 mps 732 mmHg 61%
16:00 +31°C° 0 mm 2 mps 731 mmHg 62%
17:00 +32°C° 0 mm 2 mps 732 mmHg 61%
18:00 +32°C° 0 mm 2 mps 732 mmHg 61%
19:00 +32°C° 0 mm 2 mps 732 mmHg 60%
20:00 +32°C° 0 mm 2 mps 733 mmHg 61%
21:00 +31°C° 0 mm 2 mps 733 mmHg 62%
22:00 +31°C° 0 mm 2 mps 734 mmHg 63%
23:00 +31°C° 0 mm 2 mps 733 mmHg 65%

Day after tomorrow, 16 July, Thursday

Time Temperature Precipitation Wind Pressure Humidity
00:00 +30°C° 0 mm 2 mps 733 mmHg 66%
01:00 +30°C° 0 mm 2 mps 733 mmHg 67%
02:00 +30°C° 0 mm 3 mps 733 mmHg 67%
03:00 +30°C° 0 mm 4 mps 733 mmHg 67%
04:00 +30°C° 0 mm 4 mps 732 mmHg 67%
05:00 +30°C° 0 mm 5 mps 733 mmHg 68%
06:00 +30°C° 0 mm 5 mps 734 mmHg 69%
07:00 +30°C° 0 mm 6 mps 734 mmHg 70%
08:00 +30°C° 0 mm 6 mps 734 mmHg 70%
09:00 +30°C° 0 mm 7 mps 734 mmHg 70%
10:00 +30°C° 0 mm 7 mps 735 mmHg 70%
11:00 +32°C° 0 mm 6 mps 734 mmHg 69%
12:00 +32°C° 0 mm 6 mps 734 mmHg 68%
13:00 +32°C° 0 mm 5 mps 733 mmHg 67%
14:00 +32°C° 0 mm 4 mps 733 mmHg 65%
15:00 +33°C° 0 mm 3 mps 732 mmHg 63%
16:00 +32°C° 0 mm 2 mps 731 mmHg 62%
17:00 +32°C° 0 mm 2 mps 732 mmHg 62%
18:00 +32°C° 0 mm 1 mps 732 mmHg 62%
19:00 +32°C° 0 mm 1 mps 732 mmHg 62%
20:00 +32°C° 0 mm 1 mps 732 mmHg 62%
21:00 +31°C° 0 mm 2 mps 733 mmHg 62%
22:00 +31°C° 0 mm 3 mps 733 mmHg 62%
23:00 +32°C° 0 mm 4 mps 733 mmHg 66%

17 July, Friday

Time Temperature Precipitation Wind Pressure Humidity
00:00 +30°C° 0 mm 4 mps 733 mmHg 70%
01:00 +30°C° 0 mm 5 mps 733 mmHg 74%
02:00 +30°C° 0 mm 6 mps 733 mmHg 75%
03:00 +29°C° 0 mm 6 mps 733 mmHg 75%
04:00 +29°C° 0 mm 6 mps 733 mmHg 76%
05:00 +29°C° 0 mm 8 mps 733 mmHg 78%
06:00 +28°C° 0 mm 10 mps 734 mmHg 79%
07:00 +28°C° 0 mm 12 mps 734 mmHg 81%
08:00 +28°C° 0 mm 11 mps 735 mmHg 80%
09:00 +28°C° 0 mm 10 mps 735 mmHg 79%
10:00 +28°C° 0 mm 9 mps 735 mmHg 78%
11:00 +29°C° 0.1 mm 8 mps 735 mmHg 74%
12:00 +29°C° 0.1 mm 7 mps 734 mmHg 70%
13:00 +29°C° 0.1 mm 6 mps 734 mmHg 67%
14:00 +30°C° 0 mm 6 mps 733 mmHg 65%
15:00 +30°C° 0 mm 6 mps 733 mmHg 64%
16:00 +30°C° 0 mm 6 mps 732 mmHg 62%
17:00 +30°C° 0 mm 5 mps 732 mmHg 63%
18:00 +30°C° 0 mm 4 mps 732 mmHg 63%
19:00 +32°C° 0 mm 4 mps 732 mmHg 63%
20:00 +31°C° 0 mm 3 mps 733 mmHg 64%
21:00 +30°C° 0 mm 3 mps 733 mmHg 64%
22:00 +30°C° 0 mm 3 mps 733 mmHg 65%
23:00 +30°C° 0 mm 4 mps 733 mmHg 66%

18 July, Saturday

Time Temperature Precipitation Wind Pressure Humidity
00:00 +30°C° 0 mm 4 mps 733 mmHg 67%
01:00 +30°C° 0 mm 4 mps 733 mmHg 68%
02:00 +29°C° 0 mm 4 mps 733 mmHg 69%
03:00 +29°C° 0 mm 4 mps 733 mmHg 70%
04:00 +28°C° 0 mm 3 mps 732 mmHg 72%
05:00 +28°C° 0 mm 5 mps 733 mmHg 73%
06:00 +28°C° 0 mm 6 mps 733 mmHg 74%
07:00 +29°C° 0 mm 8 mps 733 mmHg 74%
08:00 +29°C° 0 mm 7 mps 733 mmHg 73%
09:00 +29°C° 0 mm 7 mps 734 mmHg 71%
10:00 +30°C° 0 mm 7 mps 734 mmHg 69%
11:00 +30°C° 0 mm 5 mps 734 mmHg 66%
12:00 +32°C° 0 mm 4 mps 733 mmHg 64%
13:00 +31°C° 0 mm 3 mps 733 mmHg 61%
14:00 +31°C° 0 mm 3 mps 732 mmHg 60%
15:00 +33°C° 0 mm 3 mps 732 mmHg 58%
16:00 +33°C° 0 mm 3 mps 731 mmHg 57%
17:00 +33°C° 0 mm 3 mps 731 mmHg 56%
18:00 +33°C° 0 mm 3 mps 731 mmHg 56%
19:00 +33°C° 0 mm 3 mps 731 mmHg 55%
20:00 +33°C° 0.1 mm 3 mps 731 mmHg 55%
21:00 +33°C° 0.1 mm 3 mps 732 mmHg 55%
22:00 +33°C° 0.1 mm 3 mps 732 mmHg 55%
23:00 +32°C° 0 mm 4 mps 732 mmHg 59%

19 July, Sunday

Time Temperature Precipitation Wind Pressure Humidity
00:00 +32°C° 0 mm 6 mps 732 mmHg 64%
01:00 +30°C° 0 mm 7 mps 732 mmHg 68%
02:00 +30°C° 0 mm 6 mps 732 mmHg 69%
03:00 +30°C° 0 mm 6 mps 732 mmHg 70%
04:00 +29°C° 0 mm 6 mps 732 mmHg 71%
05:00 +29°C° 0 mm 7 mps 732 mmHg 72%
06:00 +29°C° 0 mm 7 mps 733 mmHg 73%
07:00 +29°C° 0 mm 8 mps 733 mmHg 74%
08:00 +31°C° 0 mm 8 mps 733 mmHg 73%
09:00 +31°C° 0 mm 8 mps 734 mmHg 71%
10:00 +31°C° 0 mm 8 mps 734 mmHg 70%
11:00 +30°C° 0 mm 7 mps 734 mmHg 68%
12:00 +32°C° 0 mm 5 mps 733 mmHg 65%
13:00 +32°C° 0 mm 4 mps 732 mmHg 63%
14:00 +33°C° 0 mm 4 mps 732 mmHg 63%
15:00 +33°C° 0 mm 3 mps 731 mmHg 62%
16:00 +33°C° 0 mm 3 mps 731 mmHg 61%
17:00 +31°C° 0 mm 3 mps 731 mmHg 63%
18:00 +31°C° 0 mm 3 mps 731 mmHg 65%
19:00 +31°C° 0 mm 3 mps 731 mmHg 67%
20:00 +32°C° 0 mm 4 mps 732 mmHg 68%
21:00 +32°C° 0 mm 5 mps 732 mmHg 69%
22:00 +32°C° 0 mm 6 mps 732 mmHg 69%
23:00 +30°C° 0 mm 6 mps 732 mmHg 72%
Show more